Elmira, NY

9:55 AM EST on December 12, 2019 (GMT -0500)
Elmira-Corning Regional

Weather History for KELM - October, 2019

Change the Weather History Date:

Tuesday, October 15, 2019

  Actual Average Record
Temperature  
Mean Temperature 48 °F -  
Max Temperature 64 °F 62 °F 89 °F (1947)
Min Temperature 33 °F 40 °F 25 °F (1999)
Degree Days  
Heating Degree Days 16    
Moisture  
Dew Point 38 °F    
Average Humidity 84    
Maximum Humidity 100    
Minimum Humidity 39    
Precipitation  
Precipitation 0.00 in - - ()
Sea Level Pressure  
Sea Level Pressure 30.12 in    
Wind  
Wind Speed 1 mph (SW)    
Max Wind Speed 7 mph    
Max Gust Speed -    
Visibility 7 miles    
Events Fog    
Averages and records for this station are not official NWS values.
T = Trace of Precipitation, MM = Missing Value Source: NWS Daily Summary

Daily Weather History Graph

Daily Weather History Graph

Search for Another Location

Airport or City:

Astronomy

Oct. 15, 2019 Rise Set
Actual Time 7:19 AM EDT 6:26 PM EDT
Civil Twilight 6:51 AM EDT 6:54 PM EDT
Nautical Twilight 6:19 AM EDT 7:26 PM EDT
Astronomical Twilight 5:46 AM EDT 7:59 PM EDT
Moon 7:43 PM EDT (10/15) 8:49 AM EDT (10/15)
Length of Visible Light 12h 02m
Length of Day
11h 06m
Full, 97% of the Moon is Illuminated
Oct 15
Full
Oct 21
Last Quarter
Oct 27
New
Nov 4
First Quarter
Nov 12
Full

Hourly Weather History & Observations

Time (EDT) Temp. Windchill Dew Point Humidity Pressure Visibility Wind Dir Wind Speed Gust Speed Precip Events Conditions
12:53 AM 43.0 °F - 39.9 °F 89% 30.12 in 10.0 mi Calm Calm - N/A   Overcast
1:53 AM 43.0 °F - 39.9 °F 89% 30.12 in 10.0 mi Calm Calm - N/A   Mostly Cloudy
2:53 AM 39.9 °F - 37.9 °F 93% 30.13 in 10.0 mi Calm Calm - N/A   Scattered Clouds
3:53 AM 37.9 °F - 36.0 °F 93% 30.14 in 10.0 mi Calm Calm - N/A   Mostly Cloudy
4:53 AM 39.0 °F 36.8 °F 37.9 °F 96% 30.15 in 10.0 mi WSW 3.5 mph - N/A   Clear
5:53 AM 35.1 °F - 35.1 °F 100% 30.17 in 10.0 mi Calm Calm - N/A   Clear
6:19 AM 33.1 °F - 32.0 °F 96% 30.16 in 10.0 mi Calm Calm - N/A   Scattered Clouds
6:29 AM 33.1 °F - 33.1 °F 100% 30.16 in 10.0 mi Calm Calm - N/A   Mostly Cloudy
6:53 AM 34.0 °F - 33.1 °F 96% 30.19 in 10.0 mi Calm Calm - N/A   Overcast
7:01 AM 34.0 °F - 34.0 °F 100% 30.17 in 1.5 mi Calm Calm - N/A   Overcast
7:10 AM 34.0 °F - 34.0 °F 100% 30.16 in 0.2 mi Calm Calm - N/A Fog Fog
7:53 AM 36.0 °F 33.3 °F 36.0 °F 100% 30.19 in 0.2 mi WNW 3.5 mph - N/A Fog Fog
8:19 AM 36.0 °F - 36.0 °F 100% 30.18 in 0.2 mi Calm Calm - N/A Fog Fog
8:31 AM 37.0 °F 34.5 °F 37.0 °F 100% 30.18 in 0.2 mi WNW 3.5 mph - N/A Fog Fog
8:53 AM 39.0 °F 36.8 °F 39.0 °F 100% 30.21 in 0.2 mi WSW 3.5 mph - N/A Fog Fog
9:00 AM 39.0 °F - 39.0 °F 100% 30.18 in 0.2 mi Calm Calm - N/A Fog Fog
9:37 AM 39.9 °F 37.8 °F 39.9 °F 100% 30.18 in 1.0 mi SW 3.5 mph - N/A   Mist
9:45 AM 41.0 °F 38.0 °F 39.9 °F 96% 30.18 in 3.0 mi SSW 4.6 mph - N/A   Overcast
9:53 AM 41.0 °F - 41.0 °F 100% 30.20 in 6.0 mi North - - N/A   Overcast
10:15 AM 42.1 °F - 41.0 °F 96% 30.17 in 1.5 mi North - - N/A   Scattered Clouds
10:23 AM 43.0 °F - - N/A% 30.17 in 5.0 mi North - - N/A   Haze
10:53 AM 45.0 °F - - N/A% 30.18 in 5.0 mi North - - N/A   Haze
11:53 AM 55.0 °F - 51.1 °F 86% 30.16 in 10.0 mi North - - N/A   Unknown
12:53 PM 59.0 °F - 41.0 °F 51% 30.12 in 10.0 mi North - - N/A   Clear
1:53 PM 61.0 °F - 39.0 °F 44% 30.09 in - North - - N/A   Clear
2:53 PM 62.1 °F - 37.0 °F 39% 30.06 in - North - - N/A   Clear
3:53 PM 64.0 °F - 39.9 °F 41% 30.03 in - North - - N/A   Clear
4:53 PM 64.0 °F - 39.9 °F 41% 30.00 in - North - - N/A   Clear
5:53 PM 61.0 °F - 39.9 °F 46% 30.01 in 10.0 mi South 6.9 mph - N/A   Clear
6:53 PM 55.9 °F - 39.0 °F 53% 30.02 in 10.0 mi South 6.9 mph - N/A   Clear
7:53 PM 48.9 °F - 39.0 °F 69% 30.02 in 10.0 mi Calm Calm - N/A   Clear
8:53 PM 44.1 °F - 39.0 °F 82% 30.01 in 10.0 mi Calm Calm - N/A   Clear
9:53 PM 39.0 °F - 36.0 °F 89% 30.00 in 10.0 mi Calm Calm - N/A   Clear
10:53 PM 41.0 °F - 37.9 °F 89% 29.97 in 10.0 mi Calm Calm - N/A   Clear
11:53 PM 42.1 °F - 37.0 °F 82% 29.95 in 10.0 mi Calm Calm - N/A   Clear